This is the latest recevied weather packets stored in our database for station/object KE4EST. If no packets are shown the sender has not sent any weather packets the latest 10 day(s).
| Time | Temp. | Humidity | Pressure | Rain* | Wind** | Luminosity | Snow |
|---|---|---|---|---|---|---|---|
| 1778173947 | 15° C | 92% | 1013.6 hPa | 0 mm | - | 204 W/m² | - |
| 1778173644 | 15° C | 92% | 1013.7 hPa | 0 mm | - | 179 W/m² | - |
| 1778173340 | 15° C | 94% | 1013.6 hPa | 0 mm | - | 167 W/m² | - |
| 1778173036 | 15° C | 94% | 1013.4 hPa | 0 mm | - | 207 W/m² | - |
| 1778172732 | 15° C | 95% | 1013.3 hPa | 0 mm | - | 156 W/m² | - |
| 1778172428 | 14.44° C | 95% | 1013.6 hPa | 0 mm | - | 137 W/m² | - |
| 1778172126 | 14.44° C | 96% | 1013.4 hPa | 0 mm | - | 91 W/m² | - |
| 1778171823 | 15° C | 95% | 1013.3 hPa | 0 mm | - | 84 W/m² | - |
| 1778171521 | 14.44° C | 95% | 1013.5 hPa | 0 mm | - | 124 W/m² | - |
| 1778171216 | 14.44° C | 95% | 1013.2 hPa | 0 mm | - | 190 W/m² | - |
| 1778170912 | 14.44° C | 96% | 1013.2 hPa | 0 mm | - | 146 W/m² | - |
| 1778170609 | 15° C | 94% | 1013.3 hPa | 0 mm | - | 170 W/m² | - |
| 1778170305 | 15° C | 95% | 1013 hPa | 0 mm | - | 155 W/m² | - |
| 1778170002 | 14.44° C | 95% | 1013.1 hPa | 0 mm | - | 137 W/m² | - |
| 1778169698 | 14.44° C | 96% | 1012.9 hPa | 0 mm | - | 172 W/m² | - |
| 1778169394 | 15° C | 95% | 1012.8 hPa | 0 mm | - | 123 W/m² | - |
| 1778169091 | 15° C | 94% | 1012.8 hPa | 0 mm | - | 111 W/m² | - |
| 1778168787 | 15.56° C | 92% | 1012.5 hPa | 0 mm | - | 129 W/m² | - |
| 1778168485 | 16.11° C | 94% | 1012.8 hPa | 0 mm | - | 335 W/m² | - |
| 1778168181 | 15.56° C | 95% | 1012.8 hPa | 0 mm | - | 326 W/m² | - |
| 1778167878 | 15° C | 96% | 1012.6 hPa | 0 mm | - | 295 W/m² | - |
| 1778167574 | 15° C | 98% | 1012.6 hPa | 0 mm | - | 240 W/m² | - |
| 1778167270 | 15° C | 97% | 1012.7 hPa | 0 mm | - | 207 W/m² | - |
| 1778166966 | 15° C | 98% | 1012.6 hPa | 0 mm | - | 208 W/m² | - |
| 1778166664 | 14.44° C | 99% | 1012.7 hPa | 0 mm | - | 193 W/m² | - |
* Rain latest hour (hover to see other rain measurements)
** Current wind speed in m/s (hover to see current wind gust speed)